| time (UTC) | temp F | wind direction | speed MPH | gust MPH | rain 1hr in | rain 24hr in | rain mn in | humidity % | barometer mb |
| 20260505101535 | 52 | 283 | 10.0 | 0.0 | 0.00 | 0.00 | 0.00 | 49 | 970.9 |
| 20260505100109 | 52 | 269 | 10.0 | 0.0 | 0.00 | 0.00 | 0.00 | 49 | 970.9 |
| 20260505094535 | 52 | 269 | 9.0 | 0.0 | 0.00 | 0.00 | 0.00 | 50 | 971.2 |
| 20260505093058 | 53 | 266 | 9.0 | 0.0 | 0.00 | 0.00 | 0.00 | 49 | 970.7 |
| 20260505091535 | 53 | 249 | 10.0 | 0.0 | 0.00 | 0.00 | 0.00 | 49 | 970.7 |
| 20260505090113 | 53 | 258 | 9.0 | 0.0 | 0.00 | 0.00 | 0.00 | 49 | 970.7 |
| 20260505084534 | 54 | 269 | 9.0 | 0.0 | 0.00 | 0.00 | 0.00 | 66 | 971.2 |
| 20260505083054 | 53 | 260 | 10.0 | 0.0 | 0.00 | 0.00 | 0.00 | 70 | 970.4 |
| 20260505081535 | 53 | 246 | 10.0 | 0.0 | 0.00 | 0.00 | 0.00 | 70 | 970.4 |
| 20260505080106 | 54 | 244 | 11.0 | 0.0 | 0.00 | 0.00 | 0.00 | 58 | 970.6 |
| 20260505074535 | 54 | 247 | 12.0 | 0.0 | 0.00 | 0.00 | 0.00 | 71 | 969.8 |
| 20260505073056 | 55 | 243 | 10.0 | 0.0 | 0.00 | 0.00 | 0.00 | 71 | 969.8 |
| 20260505071536 | 56 | 231 | 14.0 | 0.0 | 0.00 | 0.00 | 0.00 | 71 | 969.9 |
| 20260505070107 | 57 | 217 | 12.0 | 0.0 | 0.00 | 0.00 | 0.00 | 71 | 969.9 |
| 20260505064535 | 56 | 239 | 11.0 | 0.0 | 0.00 | 0.00 | 0.00 | 63 | 970.4 |
| 20260505063052 | 57 | 242 | 11.0 | 0.0 | 0.00 | 0.00 | 0.00 | 75 | 969.8 |
| 20260505061536 | 57 | 243 | 10.0 | 0.0 | 0.00 | 0.00 | 0.00 | 75 | 969.8 |
| 20260505060114 | 58 | 240 | 11.0 | 0.0 | 0.00 | 0.00 | 0.00 | 75 | 969.8 |
| 20260505054536 | 58 | 237 | 11.0 | 0.0 | 0.00 | 0.00 | 0.00 | 70 | 971.1 |
| 20260505053059 | 59 | 244 | 13.0 | 0.0 | 0.00 | 0.00 | 0.00 | 62 | 969.6 |
| 20260505051535 | 60 | 245 | 15.0 | 0.0 | 0.00 | 0.00 | 0.00 | 62 | 969.6 |
| 20260505050104 | 61 | 243 | 16.0 | 0.0 | 0.00 | 0.00 | 0.00 | 62 | 969.6 |
| 20260505041535 | 62 | 211 | 15.0 | 0.0 | 0.01 | 0.01 | 0.01 | 64 | 969.4 |
| 20260505040110 | 62 | 245 | 20.0 | 0.0 | 0.01 | 0.01 | 0.01 | 64 | 969.4 |
| 20260505034532 | 63 | 227 | 15.0 | 0.0 | 0.00 | 0.00 | 0.00 | 57 | 969.3 |
| 20260505033055 | 62 | 213 | 20.0 | 0.0 | 0.00 | 0.00 | 0.00 | 65 | 969.3 |
| 20260505031535 | 62 | 208 | 17.0 | 0.0 | 0.00 | 0.00 | 0.00 | 65 | 969.3 |
| 20260505030106 | 62 | 204 | 18.0 | 0.0 | 0.00 | 0.00 | 0.00 | 65 | 969.3 |
| 20260505024535 | 63 | 200 | 21.0 | 0.0 | 0.00 | 0.00 | 0.00 | 51 | 969.6 |
| 20260505023055 | 63 | 205 | 19.0 | 0.0 | 0.00 | 0.00 | 0.00 | 56 | 969.6 |
| 20260505021535 | 63 | 206 | 20.0 | 0.0 | 0.00 | 0.00 | 0.00 | 56 | 969.5 |
| 20260505020106 | 64 | 209 | 20.0 | 0.0 | 0.00 | 0.00 | 0.00 | 56 | 969.5 |
| 20260505014534 | 64 | 212 | 20.0 | 0.0 | 0.00 | 0.00 | 0.00 | 46 | 968.7 |
| 20260505013053 | 64 | 208 | 19.0 | 0.0 | 0.00 | 0.00 | 0.00 | 46 | 968.7 |
| 20260505011535 | 64 | 207 | 20.0 | 0.0 | 0.00 | 0.00 | 0.00 | 46 | 968.6 |
| 20260505004535 | 66 | 206 | 10.0 | 0.0 | 0.00 | 0.00 | 0.00 | 41 | 969.4 |
| 20260505003052 | 66 | 202 | 7.0 | 0.0 | 0.00 | 0.00 | 0.00 | 40 | 970.1 |
| 20260505001534 | 67 | 205 | 7.0 | 0.0 | 0.00 | 0.00 | 0.00 | 40 | 970.0 |
| 20260505000109 | 68 | 213 | 8.0 | 0.0 | 0.00 | 0.00 | 0.00 | 40 | 970.0 |
| 20260504234535 | 69 | 223 | 10.0 | 0.0 | 0.00 | 0.00 | 0.00 | 34 | 970.1 |
| 20260504233053 | 70 | 225 | 12.0 | 0.0 | 0.00 | 0.00 | 0.00 | 35 | 969.9 |
| 20260504231534 | 71 | 234 | 13.0 | 0.0 | 0.00 | 0.00 | 0.00 | 35 | 969.9 |
| 20260504230101 | 71 | 240 | 15.0 | 0.0 | 0.00 | 0.00 | 0.00 | 35 | 969.9 |
| 20260504224535 | 71 | 244 | 17.0 | 0.0 | 0.00 | 0.00 | 0.00 | 37 | 969.8 |
| 20260504223055 | 72 | 249 | 18.0 | 0.0 | 0.00 | 0.00 | 0.00 | 37 | 970.2 |
| 20260504221534 | 72 | 246 | 19.0 | 0.0 | 0.00 | 0.00 | 0.00 | 37 | 970.2 |
| 20260504220109 | 72 | 245 | 19.0 | 0.0 | 0.00 | 0.00 | 0.00 | 37 | 970.2 |
| 20260504214533 | 72 | 243 | 20.0 | 0.0 | 0.00 | 0.00 | 0.00 | 34 | 971.1 |
| 20260504213056 | 72 | 236 | 19.0 | 0.0 | 0.00 | 0.00 | 0.00 | 34 | 971.1 |
| 20260504211534 | 72 | 239 | 21.0 | 0.0 | 0.00 | 0.00 | 0.00 | 32 | 970.0 |
| 20260504210106 | 72 | 237 | 20.0 | 0.0 | 0.00 | 0.00 | 0.00 | 32 | 970.0 |
| 20260504204539 | 72 | 236 | 22.0 | 0.0 | 0.00 | 0.00 | 0.00 | 29 | 970.8 |
| 20260504203049 | 73 | 237 | 20.0 | 0.0 | 0.00 | 0.00 | 0.00 | 29 | 970.8 |
| 20260504201540 | 73 | 237 | 21.0 | 0.0 | 0.00 | 0.00 | 0.00 | 29 | 970.8 |
| 20260504200103 | 73 | 236 | 22.0 | 0.0 | 0.00 | 0.00 | 0.00 | 32 | 970.1 |
| 20260504194540 | 73 | 233 | 22.0 | 0.0 | 0.00 | 0.00 | 0.00 | 26 | 970.9 |
| 20260504193059 | 73 | 233 | 21.0 | 0.0 | 0.00 | 0.00 | 0.00 | 26 | 970.9 |
| 20260504191541 | 73 | 227 | 22.0 | 0.0 | 0.00 | 0.00 | 0.00 | 26 | 970.9 |
| 20260504190107 | 73 | 223 | 18.0 | 0.0 | 0.00 | 0.00 | 0.00 | 26 | 970.9 |
| 20260504184536 | 73 | 225 | 19.0 | 0.0 | 0.00 | 0.00 | 0.00 | 25 | 971.9 |
| 20260504183100 | 73 | 228 | 19.0 | 0.0 | 0.00 | 0.00 | 0.00 | 25 | 971.7 |
| 20260504181540 | 73 | 229 | 19.0 | 0.0 | 0.00 | 0.00 | 0.00 | 25 | 971.7 |
| 20260504180113 | 72 | 231 | 18.0 | 0.0 | 0.00 | 0.00 | 0.00 | 25 | 971.7 |
| 20260504174539 | 72 | 238 | 19.0 | 0.0 | 0.00 | 0.00 | 0.00 | 33 | 972.5 |
| 20260504173055 | 72 | 234 | 17.0 | 0.0 | 0.00 | 0.00 | 0.00 | 32 | 972.4 |
| 20260504171539 | 71 | 236 | 20.0 | 0.0 | 0.00 | 0.00 | 0.00 | 32 | 972.4 |
| 20260504170104 | 70 | 231 | 19.0 | 0.0 | 0.00 | 0.00 | 0.00 | 30 | 972.1 |
| 20260504160109 | 67 | 219 | 17.0 | 0.0 | 0.00 | 0.00 | 0.00 | 42 | 972.6 |
| 20260504150112 | 63 | 214 | 14.0 | 0.0 | 0.00 | 0.00 | 0.00 | 58 | 973.0 |
| 20260504140115 | 59 | 214 | 14.0 | 0.0 | 0.00 | 0.00 | 0.00 | 65 | 973.1 |
| 20260504130109 | 54 | 212 | 13.0 | 0.0 | 0.00 | 0.00 | 0.00 | 74 | 973.0 |
| 20260504120112 | 49 | 210 | 11.0 | 0.0 | 0.00 | 0.00 | 0.00 | 79 | 973.3 |
| 20260504110109 | 46 | 212 | 10.0 | 0.0 | 0.00 | 0.00 | 0.00 | 82 | 972.8 |